Regional Weather Roundup
Issued by NWS

Home | Current Version | Previous Version | Graphics & Text | Print | Product List | Glossary On
Versions: 1 2 3 4 5 6 7 8 9 10 11 12 13 14 15 16 17 18 19 20 21 22 23 24 25 26 27 28 29 30 31 32 33 34 35 36 37 38 39 40 41 42 43 44 45 46 47 48 49 50
913
ASUS44 KMEG 130600
RWRTN
TENNESSEE HOURLY STATE WEATHER ROUNDUP
NATIONAL WEATHER SERVICE MEMPHIS TN
1200 AM CST WED DEC 13 2017

TNZ002-004-019-021-049-052-054-088>092-130700-
WEST TENNESSEE

CITY           SKY/WX    TMP DP  RH WIND       PRES   REMARKS
MEMPHIS INTL   CLEAR     33  21  61 CALM      30.14S
NWS MEMPHIS      N/A     28 N/A N/A MISG        N/A
JACKSON        CLOUDY    24  19  81 S3        30.14S
DYERSBURG      CLOUDY    27  23  85 CALM      30.14F
$$

TNZ008-025-027-028-033-062-065-066-130700-
NORTH MIDDLE TENNESSEE

CITY           SKY/WX    TMP DP  RH WIND       PRES   REMARKS
NASHVILLE      CLEAR     27   9  46 W3        30.11F
CLARKSVILLE    CLOUDY    24  14  65 CALM      30.10F
SMYRNA         CLEAR     23  15  71 CALM      30.13S
CROSSVILLE     CLEAR     22   7  52 NW6       30.01F WCI  14
$$

TNZ061-075-076-078-094-096-097-130700-
SOUTH MIDDLE TENNESSEE

CITY           SKY/WX    TMP DP  RH WIND       PRES   REMARKS
WINCHESTER     CLEAR     27  12  54 CALM      30.09S
$$

TNZ017-018-042-046-047-130700-
NORTHEAST TENNESSEE

CITY           SKY/WX    TMP DP  RH WIND       PRES   REMARKS
TRI CITIES     CLEAR     24   5  44 W12       29.96S WCI  13
$$

TNZ012-013-036-069-073-074-130700-
CENTRAL EAST TENNESSEE

CITY           SKY/WX    TMP DP  RH WIND       PRES   REMARKS
KNOXVILLE      CLEAR     28  11  48 NW6       30.04F WCI  22
OAK RIDGE      CLEAR     27   9  46 CALM      30.06F
$$

TNZ083-085-099-130700-
SOUTHEAST TENNESSEE

CITY           SKY/WX    TMP DP  RH WIND       PRES   REMARKS
CHATTANOOGA    CLEAR     31   8  38 N7        30.08S WCI  24
$$

SKY/WX REPORTED AS FAIR MEANS FEW OR NO CLOUDS BELOW
12 THOUSAND FEET.





USA.gov is the U.S. government's official web portal to all federal, state and local government web resources and services.